Weather reports worldwide

Advertisment
Svenska Hogarna A, Sweden (2498): temperature & dewpoint: 28.05.2020 21:00:00 - 03.06.2020 21:00:00 (CEST)Svenska Hogarna A, Sweden (2498): reduced air pressure: 28.05.2020 21:00:00 - 03.06.2020 21:00:00 (CEST)Svenska Hogarna A, Sweden (2498): visibility: 28.05.2020 21:00:00 - 03.06.2020 21:00:00 (CEST)Svenska Hogarna A, Sweden (2498): precipitation: 28.05.2020 21:00:00 - 03.06.2020 21:00:00 (CEST)
Date & Time tt [°C] td [°C] ppp [hPa] vv [km] rr [mm]
03.06.2020 21:00:00 10,7 7,9 1010,3 44 0,0
03.06.2020 20:00:00 11,5 7,0 1010,4 48 0,0
03.06.2020 19:00:00 11,7 7,4 1010,7 39 0,0
03.06.2020 18:00:00 12,4 7,5 1011,2 42 0,0
03.06.2020 17:00:00 12,5 7,2 1011,5 35 0,0
03.06.2020 16:00:00 12,6 9,1 1011,9 37 0,0
03.06.2020 15:00:00 12,6 8,9 1012,2 38 0,0
03.06.2020 14:00:00 12,6 9,4 1012,6 44 0,0
03.06.2020 13:00:00 12,3 9,1 1012,8 45 0,0
03.06.2020 12:00:00 12,8 9,4 1013,0 40 0,0
03.06.2020 11:00:00 12,1 8,8 1013,3 35 0,0
03.06.2020 10:00:00 11,5 8,2 1013,4 34 0,0
03.06.2020 09:00:00 12,0 9,0 1013,6 39 0,0
03.06.2020 08:00:00 10,8 8,6 1013,7 44 0,0
03.06.2020 07:00:00 10,4 8,5 1013,7 36 0,0
03.06.2020 06:00:00 10,0 8,3 1013,8 38 0,0
03.06.2020 05:00:00 10,0 8,3 1014,0 43 0,0
03.06.2020 04:00:00 9,6 8,2 1014,1 39 0,0
03.06.2020 03:00:00 9,5 8,1 1014,3 48 0,0
03.06.2020 02:00:00 9,7 8,1 1014,7 40 0,0
03.06.2020 01:00:00 10,0 7,8 1015,2 36 0,0
03.06.2020 00:00:00 10,2 6,5 1015,2 48 0,0
02.06.2020 23:00:00 10,1 6,8 1015,8 50 0,0
02.06.2020 22:00:00 9,9 7,1 1016,2 43 0,0
02.06.2020 21:00:00 10,2 6,7 1016,6 50 0,0
02.06.2020 20:00:00 10,6 7,1 1017,4 35 0,0
02.06.2020 19:00:00 11,2 6,7 1017,6 40 0,0
02.06.2020 18:00:00 11,2 6,1 1017,7 47 0,0
02.06.2020 17:00:00 11,6 7,1 1018,4 40 0,0
02.06.2020 16:00:00 11,4 6,9 1019,2 42 0,0
02.06.2020 15:00:00 11,6 6,5 1019,9 42 0,0
02.06.2020 14:00:00 11,3 7,8 1020,4 42 0,0
02.06.2020 13:00:00 11,5 6,8 1020,8 45 0,0
02.06.2020 12:00:00 12,1 7,6 1021,3 36 0,0
02.06.2020 11:00:00 11,4 7,1 1021,8 38 0,0
02.06.2020 10:00:00 11,4 7,3 1021,9 43 0,0
02.06.2020 09:00:00 11,3 7,2 1021,6 43 0,0
02.06.2020 08:00:00 11,2 6,9 1021,6 50 0,0
02.06.2020 07:00:00 11,4 6,3 1021,5 43 0,0
02.06.2020 06:00:00 10,8 7,5 1021,4 39 0,0
02.06.2020 05:00:00 10,7 7,2 1021,4 41 0,0
02.06.2020 04:00:00 10,5 8,3 1021,6 44 0,0
02.06.2020 03:00:00 10,5 8,9 1021,6 50 0,0
02.06.2020 02:00:00 10,4 9,0 1021,8 50 0,0
02.06.2020 01:00:00 10,5 8,9 1022,2 50 0,0
02.06.2020 00:00:00 11,3 8,5 1022,2 50 0,0
01.06.2020 23:00:00 12,5 7,8 1021,9 50 0,0
01.06.2020 22:00:00 12,1 8,4 1022,2 50 0,0
01.06.2020 21:00:00 15,2 9,3 1021,7 48 0,0
01.06.2020 20:00:00 16,1 7,6 1022,1 50 0,0
01.06.2020 19:00:00 16,4 7,9 1022,5 44 0,0
01.06.2020 18:00:00 17,5 6,7 1022,8 50 0,0
01.06.2020 17:00:00 17,6 7,1 1023,6 45 0,0
01.06.2020 16:00:00 15,7 7,7 1024,5 40 0,0
01.06.2020 15:00:00 16,8 8,2 1025,3 37 0,0
01.06.2020 14:00:00 16,2 7,9 1025,9 46 0,0
01.06.2020 13:00:00 15,0 8,0 1026,4 40 0,0
01.06.2020 12:00:00 14,8 8,3 1026,9 22 0,0
01.06.2020 11:00:00 12,5 8,4 1027,3 47 0,0
01.06.2020 10:00:00 11,8 8,5 1027,7 43 0,0
01.06.2020 09:00:00 12,1 8,4 1027,4 40 0,0
01.06.2020 08:00:00 11,9 8,4 1027,1 39 0,0
01.06.2020 07:00:00 11,0 8,2 1027,0 49 0,0
01.06.2020 06:00:00 10,8 7,9 1026,7 48 0,0
01.06.2020 05:00:00 9,9 7,3 1026,6 48 0,0
01.06.2020 04:00:00 9,5 6,9 1026,8 50 0,0
01.06.2020 03:00:00 9,9 6,0 1027,0 50 0,0
01.06.2020 02:00:00 9,9 5,9 1027,4 50 0,0
01.06.2020 01:00:00 10,1 6,1 1027,7 50 0,0
01.06.2020 00:00:00 10,4 5,2 1027,7 50 0,0
31.05.2020 23:00:00 10,3 5,3 1027,9 50 0,0
31.05.2020 22:00:00 10,1 5,7 1028,1 49 0,0
31.05.2020 21:00:00 10,4 6,2 1028,3 50 0,0
31.05.2020 20:00:00 10,4 6,7 1028,4 50 0,0
31.05.2020 19:00:00 10,8 7,1 1028,7 50 0,0
31.05.2020 18:00:00 11,0 6,9 1028,9 43 0,0
31.05.2020 17:00:00 11,4 6,5 1029,2 50 0,0
31.05.2020 16:00:00 11,8 6,7 1029,5 41 0,0
31.05.2020 15:00:00 11,8 6,9 1029,9 35 0,0
31.05.2020 14:00:00 11,8 7,7 1030,2 40 0,0
31.05.2020 13:00:00 11,9 8,0 1030,4 39 0,0
31.05.2020 12:00:00 12,1 7,8 1030,6 39 0,0
31.05.2020 11:00:00 12,4 8,5 1030,6 42 0,0
31.05.2020 10:00:00 11,7 7,4 1030,6 48 0,0
31.05.2020 09:00:00 12,3 7,2 1030,3 45 0,0
31.05.2020 08:00:00 11,8 7,1 1030,0 41 0,0
31.05.2020 07:00:00 11,4 7,1 1029,5 48 0,0
31.05.2020 06:00:00 11,0 7,1 1029,2 50 0,0
31.05.2020 05:00:00 10,6 7,1 1029,2 44 0,0
31.05.2020 04:00:00 10,2 7,3 1028,9 47 0,0
31.05.2020 03:00:00 9,8 7,4 1028,6 50 0,0
31.05.2020 02:00:00 9,9 7,3 1028,6 41 0,0
31.05.2020 01:00:00 9,6 7,2 1028,3 41 0,0
31.05.2020 00:00:00 9,4 7,0 1028,2 45 0,0
30.05.2020 23:00:00 9,5 6,9 1028,1 37 0,0
30.05.2020 22:00:00 9,2 6,8 1028,1 45 0,0
30.05.2020 21:00:00 9,6 6,7 1027,9 45 0,0
30.05.2020 20:00:00 10,2 6,3 1027,8 46 0,0
30.05.2020 19:00:00 10,6 6,5 1028,0 42 0,0
30.05.2020 18:00:00 11,1 6,4 1028,2 38 0,0
30.05.2020 17:00:00 11,3 6,4 1028,6 37 0,0
30.05.2020 16:00:00 12,0 7,2 1028,9 40 0,0
30.05.2020 15:00:00 11,6 7,5 1029,1 43 0,0
30.05.2020 14:00:00 11,5 8,2 1029,3 32 0,0
30.05.2020 13:00:00 11,1 8,0 1029,4 41 0,0
30.05.2020 12:00:00 11,2 8,2 1029,8 32 0,0
30.05.2020 11:00:00 11,0 7,9 1030,0 42 0,0
30.05.2020 10:00:00 10,7 7,8 1029,9 47 0,0
30.05.2020 09:00:00 10,8 7,7 1029,6 39 0,0
30.05.2020 08:00:00 10,1 7,2 1029,5 39 0,0
30.05.2020 07:00:00 10,0 7,1 1029,0 49 0,0
30.05.2020 06:00:00 9,5 6,8 1028,8 41 0,0
30.05.2020 05:00:00 9,1 6,4 1028,7 44 0,0
30.05.2020 04:00:00 8,9 6,0 1028,7 42 0,0
30.05.2020 03:00:00 9,1 5,5 1028,7 45 0,0
30.05.2020 02:00:00 9,0 5,4 1028,6 50 0,0
30.05.2020 01:00:00 9,0 5,4 1028,7 50 0,0
30.05.2020 00:00:00 8,9 5,5 1028,4 50 0,0
29.05.2020 23:00:00 8,8 5,9 1028,4 50 0,0
29.05.2020 22:00:00 8,9 5,8 1028,5 45 0,0
29.05.2020 21:00:00 9,3 5,8 1028,3 44 0,0
29.05.2020 20:00:00 9,9 5,5 1028,3 45 0,0
29.05.2020 19:00:00 10,4 6,0 1028,6 47 0,0
29.05.2020 18:00:00 10,7 5,7 1028,7 43 0,0
29.05.2020 17:00:00 10,6 5,6 1028,9 35 0,0
29.05.2020 16:00:00 10,8 6,2 1029,2 39 0,0
29.05.2020 15:00:00 10,8 5,8 1029,4 39 0,0
29.05.2020 14:00:00 10,5 5,5 1029,7 43 0,0
29.05.2020 13:00:00 10,5 5,5 1030,0 40 0,0
29.05.2020 12:00:00 10,9 5,6 1030,2 42 0,0
29.05.2020 11:00:00 10,8 5,8 1030,6 40 0,0
29.05.2020 10:00:00 10,6 5,8 1030,5 40 0,0
29.05.2020 09:00:00 10,2 6,0 1030,3 32 0,0
29.05.2020 08:00:00 9,8 6,0 1030,2 49 0,0
29.05.2020 07:00:00 9,8 5,8 1030,3 49 0,0
29.05.2020 06:00:00 9,3 5,8 1030,4 48 0,0
29.05.2020 05:00:00 9,1 5,7 1030,3 22 0,0
29.05.2020 04:00:00 8,2 6,8 1030,3 50 0,0
29.05.2020 03:00:00 8,0 6,8 1030,1 47 0,0
29.05.2020 02:00:00 8,5 6,3 1030,1 23 0,0
29.05.2020 01:00:00 8,7 6,5 1029,8 50 0,0
29.05.2020 00:00:00 9,0 6,8 1029,6 50 0,0
28.05.2020 23:00:00 8,1 5,6 1029,6 46 0,0
28.05.2020 22:00:00 9,7 2,3 1029,6 50 0,0
28.05.2020 21:00:00 9,5 3,7 1029,5 39 0,0

tt = temperature
td = dewpoint
ppp = reduced air pressure
vv = visibility
rr = precipitation

Next stations